Date String (YYYY-MM-DD hh:mm:ss) UTC,Instrument flags,Ambient pressure (hPa),Sample flow (lpm),Bypass flow (lpm),Sample temperature (°C),Ambient temperature (°C),ASC tube jacket temperature (°C),LED temperature (°C),Box temperature (°C),Sample RH (%),Span deviation,Mass concentration (μg/m³),Mass concentration (μg/m³),Mass concentration (μg/m³)
DateTimeUTC,F1_M11,P_M11,Q1_M11,Q2_M11,T1_M11,T2_M11,T3_M11,T4_M11,T5_M11,U1_M11,ZSPAN_M11,X0_M11,X2_M11,X1_M11
2023-01-04 02:00:00,,0817.8,5.00,0.00,22.6,21.2,00.0,31.4,24.3,12.6,0000.0,0011.60,0008.58,0008.33
2023-01-04 02:01:00,,0817.9,4.98,0.00,22.6,21.2,00.0,31.4,24.3,12.6,0000.0,0011.86,0008.61,0008.40
2023-01-04 02:02:00,,0817.9,5.01,0.00,22.5,21.1,00.0,31.4,24.3,12.7,0000.0,0012.12,0008.65,0008.44
2023-01-04 02:03:00,,0817.9,4.98,0.00,22.5,21.1,00.0,31.4,24.3,12.7,0000.0,0012.18,0008.68,0008.46
2023-01-04 02:04:00,,0817.8,5.01,0.00,22.5,21.1,00.0,31.4,24.3,12.7,0000.0,0012.24,0008.71,0008.48
2023-01-04 02:05:00,,0817.8,5.01,0.00,22.5,21.1,00.0,31.4,24.2,12.7,0000.0,0012.26,0008.73,0008.51
2023-01-04 02:06:00,,0817.9,5.00,0.00,22.5,21.1,00.0,31.4,24.2,12.7,0000.0,0012.34,0008.77,0008.53
2023-01-04 02:07:00,,0817.9,5.01,0.00,22.5,21.1,00.0,31.4,24.2,12.7,0000.0,0012.30,0008.77,0008.54
2023-01-04 02:08:00,,0817.9,5.01,0.00,22.5,21.0,00.0,31.4,24.2,12.7,0000.0,0012.32,0008.77,0008.53
2023-01-04 02:09:00,,0817.9,5.00,0.00,22.4,21.0,00.0,31.3,24.1,12.7,0000.0,0012.35,0008.82,0008.59
2023-01-04 02:10:00,,0817.9,4.99,0.00,22.4,21.0,00.0,31.3,24.1,12.7,0000.0,0012.58,0008.96,0008.72
2023-01-04 02:11:00,,0817.9,4.99,0.00,22.4,20.9,00.0,31.3,24.1,12.7,0000.0,0013.21,0009.12,0008.88
2023-01-04 02:12:00,,0817.8,4.99,0.00,22.4,20.9,00.0,31.3,24.1,12.7,0000.0,0013.17,0009.29,0009.04
2023-01-04 02:13:00,,0817.8,5.01,0.00,22.4,20.9,00.0,31.3,24.1,12.7,0000.0,0013.27,0009.49,0009.22
2023-01-04 02:14:00,,0817.9,4.99,0.00,22.4,20.9,00.0,31.3,24.1,12.7,0000.0,0013.48,0009.68,0009.42
2023-01-04 02:15:00,,0817.9,5.03,0.00,22.4,21.2,00.0,31.2,24.1,12.7,0000.0,0013.75,0009.87,0009.58
2023-01-04 02:16:00,,0817.9,5.01,0.00,22.5,22.0,00.0,31.2,24.4,12.6,0000.0,0013.96,0010.05,0009.75
2023-01-04 02:17:00,,0818.0,5.00,0.00,22.6,22.7,00.0,31.2,24.6,12.5,0000.0,0014.10,0010.22,0009.92
2023-01-04 02:18:00,,0817.9,4.99,0.00,22.7,22.7,00.0,31.3,24.6,12.4,0000.0,0014.42,0010.41,0010.09
2023-01-04 02:19:00,,0817.9,5.00,0.00,22.7,22.3,00.0,31.3,24.6,12.4,0000.0,0015.30,0010.61,0010.29
2023-01-04 02:20:00,,0817.8,5.00,0.00,22.6,22.0,00.0,31.4,24.5,12.4,0000.0,0015.63,0010.73,0010.42
2023-01-04 02:21:00,,0817.8,5.00,0.00,22.6,21.8,00.0,31.4,24.4,12.4,0000.0,0015.93,0010.83,0010.47
2023-01-04 02:22:00,,0817.9,5.01,0.00,22.6,21.6,00.0,31.4,24.4,12.4,0000.0,0015.63,0010.88,0010.51
2023-01-04 02:23:00,,0817.9,5.00,0.00,22.6,21.5,00.0,31.4,24.4,12.4,0000.0,0015.51,0010.88,0010.52
2023-01-04 02:24:00,,0818.0,5.00,0.00,22.6,21.4,00.0,31.4,24.3,12.4,0000.0,0015.49,0010.92,0010.55
2023-01-04 02:25:00,,0818.0,5.00,0.00,22.6,21.3,00.0,31.4,24.3,12.4,0000.0,0015.59,0010.98,0010.59
2023-01-04 02:26:00,,0817.9,5.01,0.00,22.6,21.2,00.0,31.4,24.3,12.4,0000.0,0015.69,0011.00,0010.60
2023-01-04 02:27:00,,0817.9,5.01,0.00,22.5,21.1,00.0,31.4,24.3,12.4,0000.0,0015.75,0011.00,0010.61
2023-01-04 02:28:00,,0818.0,4.98,0.00,22.5,21.1,00.0,31.4,24.2,12.5,0000.0,0015.76,0010.98,0010.59
2023-01-04 02:29:00,,0817.9,4.99,0.00,22.5,21.0,00.0,31.4,24.2,12.5,0000.0,0015.63,0010.94,0010.59
2023-01-04 02:30:00,,0817.8,4.98,0.00,22.5,21.0,00.0,31.4,24.2,12.5,0000.0,0015.00,0010.91,0010.58
2023-01-04 02:31:00,,0817.8,4.99,0.00,22.4,20.9,00.0,31.3,24.1,12.5,0000.0,0014.82,0010.90,0010.57
2023-01-04 02:32:00,,0817.9,4.99,0.00,22.4,20.9,00.0,31.3,24.1,12.5,0000.0,0014.60,0010.83,0010.53
2023-01-04 02:33:00,,0817.9,5.01,0.00,22.4,21.0,00.0,31.3,24.1,12.5,0000.0,0014.56,0010.81,0010.50
2023-01-04 02:34:00,,0817.9,5.01,0.00,22.4,20.9,00.0,31.3,24.1,12.5,0000.0,0014.69,0010.86,0010.52
2023-01-04 02:35:00,,0817.9,5.01,0.00,22.4,21.4,00.0,31.3,24.2,12.5,0000.0,0014.75,0010.88,0010.52
2023-01-04 02:36:00,,0818.0,5.00,0.00,22.5,22.4,00.0,31.2,24.5,12.5,0000.0,0014.61,0010.80,0010.48
2023-01-04 02:37:00,,0818.0,4.99,0.00,22.6,23.0,00.0,31.3,24.7,12.5,0000.0,0014.40,0010.72,0010.44
2023-01-04 02:38:00,,0818.0,4.99,0.00,22.7,22.7,00.0,31.3,24.7,12.4,0000.0,0014.32,0010.68,0010.42
2023-01-04 02:39:00,,0818.0,5.00,0.00,22.7,22.4,00.0,31.4,24.6,12.4,0000.0,0014.34,0010.72,0010.45
2023-01-04 02:40:00,,0818.0,5.00,0.00,22.7,22.0,00.0,31.4,24.5,12.4,0000.0,0014.33,0010.71,0010.43
2023-01-04 02:41:00,,0817.9,4.99,0.00,22.7,21.8,00.0,31.4,24.5,12.4,0000.0,0014.16,0010.64,0010.36
2023-01-04 02:42:00,,0817.9,5.00,0.00,22.7,21.6,00.0,31.4,24.4,12.4,0000.0,0014.04,0010.58,0010.30
2023-01-04 02:43:00,,0817.9,5.00,0.00,22.6,21.5,00.0,31.4,24.4,12.5,0000.0,0013.86,0010.55,0010.28
2023-01-04 02:44:00,,0818.0,5.00,0.00,22.6,21.4,00.0,31.4,24.4,12.4,0000.0,0013.72,0010.49,0010.23
2023-01-04 02:45:00,,0818.0,5.00,0.00,22.6,21.3,00.0,31.4,24.3,12.4,0000.0,0013.61,0010.44,0010.18
2023-01-04 02:46:00,,0818.0,5.01,0.00,22.6,21.3,00.0,31.4,24.3,12.4,0000.0,0013.48,0010.39,0010.13
2023-01-04 02:47:00,,0818.0,5.00,0.00,22.6,21.2,00.0,31.4,24.3,12.5,0000.0,0013.49,0010.41,0010.12
2023-01-04 02:48:00,,0818.0,5.01,0.00,22.6,21.2,00.0,31.4,24.3,12.5,0000.0,0013.77,0010.43,0010.13
2023-01-04 02:49:00,,0817.9,5.00,0.00,22.6,21.2,00.0,31.4,24.3,12.5,0000.0,0014.25,0010.47,0010.15
2023-01-04 02:50:00,,0817.9,5.01,0.00,22.5,21.1,00.0,31.4,24.3,12.5,0000.0,0014.53,0010.45,0010.12
2023-01-04 02:51:00,,0817.9,4.99,0.00,22.5,21.1,00.0,31.4,24.3,12.5,0000.0,0014.80,0010.47,0010.14
2023-01-04 02:52:00,,0818.0,5.00,0.00,22.5,21.1,00.0,31.4,24.2,12.5,0000.0,0014.87,0010.53,0010.19
2023-01-04 02:53:00,,0818.0,4.99,0.00,22.5,21.0,00.0,31.4,24.2,12.5,0000.0,0015.02,0010.62,0010.27
2023-01-04 02:54:00,,0818.0,4.99,0.00,22.5,21.0,00.0,31.4,24.2,12.4,0000.0,0015.65,0010.69,0010.31
2023-01-04 02:55:00,,0818.0,5.01,0.00,22.4,21.0,00.0,31.4,24.1,12.4,0000.0,0016.87,0010.77,0010.37
2023-01-04 02:56:00,,0817.9,4.99,0.00,22.4,20.9,00.0,31.3,24.1,12.4,0000.0,0017.19,0010.80,0010.39
2023-01-04 02:57:00,,0818.0,5.01,0.00,22.4,21.2,00.0,31.3,24.2,12.4,0000.0,0017.31,0010.86,0010.44
2023-01-04 02:58:00,,0817.9,4.99,0.00,22.5,22.0,00.0,31.3,24.4,12.3,0000.0,0017.35,0010.92,0010.49
2023-01-04 02:59:00,,0817.9,5.00,0.00,22.6,22.9,00.0,31.3,24.6,12.3,0000.0,0017.06,0010.97,0010.55
